Date String (YYYY-MM-DD hh:mm:ss) UTC,Instrument flags,Ambient pressure (hPa),Sample flow (lpm),Bypass flow (lpm),Sample temperature (°C),Ambient temperature (°C),ASC tube jacket temperature (°C),LED temperature (°C),Box temperature (°C),Sample RH (%),Span deviation,Mass concentration (μg/m³),Mass concentration (μg/m³),Mass concentration (μg/m³)
DateTimeUTC,F1_M11,P_M11,Q1_M11,Q2_M11,T1_M11,T2_M11,T3_M11,T4_M11,T5_M11,U1_M11,ZSPAN_M11,X2_M11,X0_M11,X1_M11
2022-07-30 10:00:00,,0829.6,5.00,0.00,30.1,29.1,00.0,38.9,32.0,27.9,0001.2,0005.65,0010.70,0005.10
2022-07-30 10:01:00,,0829.7,5.00,0.00,30.1,29.1,00.0,38.9,32.1,27.8,0002.5,0005.66,0010.72,0005.11
2022-07-30 10:02:00,,0829.9,5.00,0.00,30.2,29.1,00.0,38.9,32.1,27.8,0002.8,0005.68,0011.33,0005.14
2022-07-30 10:03:00,,0829.7,5.00,0.00,30.2,29.1,00.0,38.9,32.1,27.8,0001.0,0005.71,0011.83,0005.16
2022-07-30 10:04:00,,0829.7,5.00,0.00,30.2,29.1,00.0,39.0,32.1,28.0,0000.3,0005.72,0012.11,0005.18
2022-07-30 10:05:00,,0829.7,5.00,0.00,30.2,29.2,00.0,39.0,32.1,28.4,0000.0,0005.70,0011.48,0005.19
2022-07-30 10:06:00,,0829.7,5.00,0.00,30.2,29.2,00.0,39.0,32.1,28.0,0000.0,0005.68,0011.10,0005.19
2022-07-30 10:07:00,,0829.6,5.00,0.00,30.2,29.2,00.0,39.0,32.1,27.9,0000.0,0005.69,0011.58,0005.20
2022-07-30 10:08:00,,0829.7,5.00,0.00,30.2,29.2,00.0,39.0,32.1,27.9,0000.0,0005.66,0011.56,0005.20
2022-07-30 10:09:00,,0829.6,4.99,0.00,30.2,29.2,00.0,39.0,32.1,27.9,0000.0,0005.66,0012.06,0005.21
2022-07-30 10:10:00,,0829.6,5.00,0.00,30.2,29.2,00.0,39.0,32.1,27.9,0000.0,0005.66,0012.92,0005.20
2022-07-30 10:11:00,,0829.6,5.00,0.00,30.3,29.2,00.0,39.0,32.2,27.9,0000.0,0005.68,0012.40,0005.21
2022-07-30 10:12:00,,0829.6,5.00,0.00,30.3,29.2,00.0,39.1,32.2,28.0,0000.0,0005.71,0012.14,0005.22
2022-07-30 10:13:00,,0829.6,4.99,0.00,30.3,29.2,00.0,39.1,32.2,27.9,0000.0,0005.74,0012.11,0005.23
2022-07-30 10:14:00,,0829.7,5.01,0.00,30.3,29.3,00.0,39.1,32.2,28.0,0000.0,0005.75,0012.32,0005.23
2022-07-30 10:15:00,,0829.6,5.00,0.00,30.3,29.3,00.0,39.1,32.2,28.0,0000.0,0005.78,0012.48,0005.24
2022-07-30 10:16:00,,0829.6,4.99,0.00,30.3,29.3,00.0,39.1,32.2,28.0,0000.0,0005.82,0012.74,0005.24
2022-07-30 10:17:00,,0829.6,5.00,0.00,30.3,29.3,00.0,39.1,32.2,27.7,0000.0,0005.83,0012.78,0005.25
2022-07-30 10:18:00,,0829.6,5.00,0.00,30.3,29.3,00.0,39.1,32.2,27.8,0000.0,0005.84,0012.40,0005.25
2022-07-30 10:19:00,,0829.6,5.00,0.00,30.4,29.3,00.0,39.1,32.2,27.7,0000.0,0005.86,0012.21,0005.26
2022-07-30 10:20:00,,0829.6,4.99,0.00,30.4,29.3,00.0,39.1,32.3,27.6,0000.0,0005.87,0012.01,0005.26
2022-07-30 10:21:00,,0829.6,5.00,0.00,30.4,29.2,00.0,39.1,32.2,27.9,0000.0,0005.88,0011.72,0005.28
2022-07-30 10:22:00,,0829.6,5.00,0.00,30.3,28.4,00.0,39.1,32.0,28.0,0000.0,0005.87,0011.40,0005.28
2022-07-30 10:23:00,,0829.5,5.01,0.00,30.2,27.7,00.0,39.0,31.9,28.2,0000.0,0005.86,0012.27,0005.30
2022-07-30 10:24:00,,0829.6,4.99,0.00,30.1,27.5,00.0,39.0,31.7,28.1,0000.0,0005.85,0012.55,0005.30
2022-07-30 10:25:00,,0829.6,5.01,0.00,30.0,27.5,00.0,38.9,31.6,28.2,0000.0,0005.84,0012.11,0005.31
2022-07-30 10:26:00,,0829.6,5.00,0.00,30.0,27.6,00.0,38.9,31.6,28.3,0000.0,0005.83,0012.42,0005.30
2022-07-30 10:27:00,,0829.6,5.00,0.00,29.9,27.8,00.0,38.9,31.6,28.4,0000.0,0005.84,0012.35,0005.31
2022-07-30 10:28:00,,0829.5,5.00,0.00,29.9,27.9,00.0,38.8,31.6,28.6,0000.0,0005.86,0013.08,0005.32
2022-07-30 10:29:00,,0829.5,5.01,0.00,29.9,28.0,00.0,38.8,31.7,28.7,0000.0,0005.89,0014.08,0005.33
2022-07-30 10:30:00,,0829.5,5.00,0.00,29.9,28.1,00.0,38.8,31.7,28.6,0000.0,0005.93,0014.34,0005.34
2022-07-30 10:31:00,,0829.5,5.01,0.00,29.9,28.2,00.0,38.8,31.7,28.2,0000.0,0005.93,0014.27,0005.34
2022-07-30 10:32:00,,0829.5,4.99,0.00,29.9,28.3,00.0,38.8,31.7,28.0,0000.0,0005.97,0014.02,0005.34
2022-07-30 10:33:00,,0829.5,5.00,0.00,29.9,28.4,00.0,38.8,31.7,28.3,0000.0,0005.99,0015.05,0005.34
2022-07-30 10:34:00,,0829.5,5.00,0.00,29.9,28.5,00.0,38.8,31.8,28.5,0000.0,0006.00,0015.02,0005.33
2022-07-30 10:35:00,,0829.5,5.01,0.00,29.9,28.5,00.0,38.8,31.7,28.2,0000.0,0005.97,0014.13,0005.32
2022-07-30 10:36:00,,0829.6,5.00,0.00,29.9,28.6,00.0,38.8,31.7,28.2,0000.0,0005.92,0013.67,0005.30
2022-07-30 10:37:00,,0829.5,5.01,0.00,29.9,28.6,00.0,38.8,31.7,28.3,0000.0,0005.89,0012.98,0005.31
2022-07-30 10:38:00,,0829.5,4.98,0.00,29.9,28.6,00.0,38.8,31.7,28.5,0000.0,0005.90,0012.98,0005.31
2022-07-30 10:39:00,,0829.6,5.00,0.00,29.9,28.7,00.0,38.8,31.8,28.7,0000.0,0005.90,0012.24,0005.31
2022-07-30 10:40:00,,0829.6,5.01,0.00,29.9,28.7,00.0,38.8,31.8,28.8,0000.0,0005.93,0011.93,0005.31
2022-07-30 10:41:00,,0829.6,5.00,0.00,29.9,28.7,00.0,38.8,31.8,28.9,0000.0,0005.91,0011.98,0005.30
2022-07-30 10:42:00,,0829.6,4.99,0.00,29.9,28.7,00.0,38.8,31.8,29.0,0000.0,0005.92,0011.84,0005.31
2022-07-30 10:43:00,,0829.5,5.00,0.00,29.9,28.8,00.0,38.8,31.8,29.2,0000.0,0005.90,0011.75,0005.32
2022-07-30 10:44:00,,0829.5,5.00,0.00,29.9,28.8,00.0,38.8,31.8,29.1,0000.0,0005.91,0010.83,0005.33
2022-07-30 10:45:00,,0829.5,5.00,0.00,29.9,28.8,00.0,38.8,31.9,29.0,0000.0,0005.95,0010.89,0005.34
2022-07-30 10:46:00,,0829.5,5.00,0.00,30.0,28.8,00.0,38.8,31.9,28.8,0000.0,0006.02,0012.37,0005.37
2022-07-30 10:47:00,,0829.5,4.99,0.00,30.0,28.8,00.0,38.8,31.9,28.3,0000.0,0006.07,0013.40,0005.38
2022-07-30 10:48:00,,0829.6,5.00,0.00,30.0,28.9,00.0,38.8,31.9,27.7,0000.0,0006.07,0013.39,0005.38
2022-07-30 10:49:00,,0829.5,5.00,0.00,30.0,28.9,00.0,38.8,31.9,27.4,0000.0,0006.03,0013.29,0005.36
2022-07-30 10:50:00,,0829.5,4.99,0.00,30.0,28.9,00.0,38.8,31.9,28.1,0000.0,0006.03,0013.27,0005.37
2022-07-30 10:51:00,,0829.5,4.99,0.00,30.0,28.9,00.0,38.8,31.9,28.4,0000.0,0005.96,0012.72,0005.37
2022-07-30 10:52:00,,0829.5,5.00,0.00,30.0,28.9,00.0,38.8,31.9,28.5,0000.0,0005.93,0012.35,0005.36
2022-07-30 10:53:00,,0829.6,5.00,0.00,30.0,28.9,00.0,38.8,31.8,28.3,0000.0,0005.93,0012.48,0005.35
2022-07-30 10:54:00,,0829.5,5.00,0.00,30.0,28.9,00.0,38.8,31.8,28.4,0000.0,0005.92,0012.33,0005.34
2022-07-30 10:55:00,,0829.5,5.00,0.00,30.0,28.9,00.0,38.8,31.8,28.5,0000.0,0005.90,0012.20,0005.32
2022-07-30 10:56:00,,0829.5,4.99,0.00,30.0,28.9,00.0,38.8,31.8,28.2,0000.0,0005.87,0011.69,0005.29
2022-07-30 10:57:00,,0829.5,5.01,0.00,30.0,28.8,00.0,38.8,31.8,27.9,0000.0,0005.80,0010.47,0005.26
2022-07-30 10:58:00,,0829.5,5.00,0.00,30.0,28.8,00.0,38.8,31.8,27.5,0000.0,0005.78,0009.33,0005.23
2022-07-30 10:59:00,,0829.5,5.00,0.00,30.0,28.9,00.0,38.8,31.8,27.3,0000.0,0005.76,0009.25,0005.20
